period_start,C,m1,H,J0,J1,J2,J3,J4,J5,JA,JB,JC,JD,JJ,JK,JN,#
2018-09-23 00:05:00,0.00,0.00,0.00,25.42,29.72,31.85,-0.07,-3.75,1018.08,2017.00,3645.01,3055.01,3519.05,0.00,0.00,0.00,0000 0000 0000 A000 020008
2018-09-23 00:10:01,0.00,0.00,0.00,25.44,29.73,31.87,-0.06,-3.74,1018.08,2017.00,3645.01,3055.00,3519.01,0.00,0.00,0.00,0000 0000 0000 A000 020008
2018-09-23 00:15:02,0.00,0.00,0.00,25.45,29.75,31.89,-0.07,-3.75,1018.08,2016.99,3645.00,3054.99,3519.00,0.00,0.00,0.00,0000 0000 0000 A000 020008
2018-09-23 00:20:03,0.00,0.00,0.00,25.47,29.76,31.88,-0.08,-3.75,1018.09,2016.99,3644.99,3054.98,3519.00,0.00,0.00,0.00,0000 0000 0000 A000 020008
2018-09-23 00:25:04,0.00,0.00,0.00,25.47,29.77,31.89,-0.08,-3.75,1018.09,2016.97,3644.95,3054.94,3518.99,0.00,0.00,0.00,0000 0000 0000 A000 020008
2018-09-23 00:30:05,0.00,0.00,0.00,25.49,29.77,31.89,-0.08,-3.75,1018.09,2016.93,3644.64,3054.76,3518.96,0.00,0.00,0.00,0000 0000 0000 A000 020008
2018-09-23 00:35:06,0.00,0.00,0.00,25.50,29.80,31.90,-0.07,-3.75,1018.09,2016.91,3644.45,3054.53,3518.91,0.00,0.00,0.00,0000 0000 0000 A000 020008
2018-09-23 00:40:08,0.00,0.00,0.00,25.51,29.80,31.90,-0.07,-3.74,1018.09,2016.79,3644.35,3054.36,3518.80,0.00,0.00,0.00,0000 0000 0000 A000 020008
2018-09-23 00:45:09,0.00,0.00,0.00,25.52,29.82,31.96,-0.07,-3.75,1018.09,2016.68,3644.14,3054.16,3518.52,0.00,0.00,0.00,0000 0000 0000 A000 020008
2018-09-23 00:50:10,0.00,0.00,0.00,25.54,29.83,31.96,-0.08,-3.75,1018.10,2016.34,3644.03,3054.03,3518.17,0.00,0.00,0.00,0000 0000 0000 A000 020008
2018-09-23 00:55:11,0.00,0.00,0.00,25.55,29.85,31.99,-0.08,-3.75,1018.08,2016.07,3644.00,3054.00,3518.01,0.00,0.00,0.00,0000 0000 0000 A000 020008
2018-09-23 01:00:13,0.00,0.00,0.00,25.56,29.86,31.97,-0.08,-3.75,1018.09,2016.04,3644.00,3054.00,3518.00,0.00,0.00,0.00,0000 0000 0000 A000 020008
2018-09-23 01:05:14,0.00,0.00,0.00,25.57,29.87,32.00,-0.08,-3.75,1018.10,2016.04,3644.00,3054.00,3518.00,0.00,0.00,0.00,0000 0000 0000 A000 020008
2018-09-23 01:10:15,0.00,0.00,0.00,25.58,29.89,32.00,-0.08,-3.75,1018.10,2016.03,3644.00,3054.00,3518.00,0.00,0.00,0.00,0000 0000 0000 A000 020008
2018-09-23 01:15:17,0.00,0.00,0.00,25.60,29.90,32.00,-0.07,-3.75,1018.09,2016.01,3643.99,3054.00,3517.99,0.00,0.00,0.00,0000 0000 0000 A000 020008
2018-09-23 01:20:18,0.00,0.00,0.00,25.60,29.91,32.03,-0.08,-3.77,1018.10,2016.00,3643.89,3053.96,3517.94,0.00,0.00,0.00,0000 0000 0000 A000 020008
2018-09-23 01:25:19,0.00,0.00,0.00,25.62,29.92,32.02,-0.09,-3.75,1018.11,2016.00,3643.61,3053.91,3517.83,0.00,0.00,0.00,0000 0000 0000 A000 020008
2018-09-23 01:30:20,0.00,0.00,0.00,25.64,29.94,32.06,-0.09,-3.75,1018.14,2016.00,3643.41,3053.76,3517.60,0.00,0.00,0.00,0000 0000 0000 A000 020008
2018-09-23 01:35:21,0.00,0.00,0.00,25.66,29.95,32.09,-0.08,-3.74,1018.12,2016.00,3643.37,3053.71,3517.56,0.00,0.00,0.00,0000 0000 0000 A000 020008
2018-09-23 01:40:22,0.00,0.00,0.00,25.67,29.96,32.09,-0.09,-3.75,1018.10,2016.00,3643.14,3053.28,3517.19,0.00,0.00,0.00,0000 0000 0000 A000 020008
2018-09-23 01:45:23,0.00,0.00,0.00,25.68,29.97,32.10,-0.09,-3.75,1018.12,2016.00,3643.02,3053.06,3517.01,0.00,0.00,0.00,0000 0000 0000 A000 020008
2018-09-23 01:50:25,0.00,0.00,0.00,25.70,29.99,32.03,-0.08,-3.77,1018.24,2015.99,3643.00,3053.01,3517.00,0.00,0.00,0.00,0000 0000 0000 A000 020008
2018-09-23 01:55:26,0.00,0.00,0.00,25.69,30.00,32.08,-0.08,-3.75,1018.22,2015.98,3643.00,3053.00,3517.00,0.00,0.00,0.00,0000 0000 0000 A000 020008
2018-09-23 02:00:27,0.00,0.00,0.00,25.70,30.01,32.10,-0.09,-3.76,1018.16,2015.97,3642.99,3053.00,3517.00,0.00,0.00,0.00,0000 0000 0000 A000 020008
2018-09-23 02:05:28,0.00,0.00,0.00,25.70,30.02,32.11,-0.09,-3.77,1018.20,2015.93,3642.96,3052.99,3516.97,0.00,0.00,0.00,0000 0000 0000 A000 020008
2018-09-23 02:10:29,0.00,0.00,0.00,25.70,30.03,32.11,-0.10,-3.77,1018.34,2015.83,3642.90,3052.99,3516.88,0.00,0.00,0.00,0000 0000 0000 A000 020008
2018-09-23 02:15:30,0.00,0.00,0.00,25.72,30.05,32.13,-0.10,-3.76,1018.51,2015.71,3642.79,3052.98,3516.74,0.00,0.00,0.00,0000 0000 0000 A000 020008
2018-09-23 02:20:32,0.00,0.00,0.00,25.74,30.05,32.15,-0.09,-3.75,1018.39,2015.40,3642.31,3052.91,3516.27,0.00,0.00,0.00,0000 0000 0000 A000 020008
2018-09-23 02:25:33,0.00,0.00,0.00,25.75,30.07,32.13,-0.09,-3.75,1018.28,2015.32,3642.28,3052.87,3516.17,0.00,0.00,0.00,0000 0000 0000 A000 020008
2018-09-23 02:30:34,0.00,0.00,0.00,25.77,30.07,32.12,-0.09,-3.76,1018.17,2015.16,3642.07,3052.54,3516.06,0.00,0.00,0.00,0000 0000 0000 A000 020008
2018-09-23 02:35:35,0.00,0.00,0.00,25.77,30.08,32.11,-0.09,-3.75,1018.33,2015.09,3642.02,3052.31,3516.01,0.00,0.00,0.00,0000 0000 0000 A000 020008
2018-09-23 02:40:36,0.00,0.00,0.00,25.77,30.10,32.09,-0.09,-3.75,1018.41,2015.05,3642.02,3052.21,3516.01,0.00,0.00,0.00,0000 0000 0000 A000 020008
2018-09-23 02:45:37,0.00,0.00,0.00,25.77,30.10,32.14,-0.09,-3.76,1018.46,2015.06,3642.01,3052.13,3516.00,0.00,0.00,0.00,0000 0000 0000 A000 020008
2018-09-23 02:50:39,0.00,0.00,0.00,25.78,30.11,32.14,-0.10,-3.77,1018.45,2015.04,3642.00,3052.03,3516.00,0.00,0.00,0.00,0000 0000 0000 A000 020008
2018-09-23 02:55:40,0.00,0.00,0.00,25.80,30.12,32.18,-0.09,-3.79,1018.51,2015.02,3642.00,3052.01,3516.00,0.00,0.00,0.00,0000 0000 0000 A000 020008
2018-09-23 03:00:41,0.00,0.00,0.00,25.80,30.12,32.17,-0.09,-3.75,1018.57,2015.00,3641.99,3052.00,3515.98,0.00,0.00,0.00,0000 0000 0000 A000 020008
2018-09-23 03:05:43,0.00,0.00,0.00,25.80,30.14,32.19,-0.10,-3.82,1018.57,2015.00,3641.98,3052.00,3515.96,0.00,0.00,0.00,0000 0000 0000 A000 020008
2018-09-23 03:10:44,0.00,0.00,0.00,25.82,30.15,32.21,-0.09,-3.76,1018.57,2015.00,3641.98,3052.00,3515.96,0.00,0.00,0.00,0000 0000 0000 A000 020008
2018-09-23 03:15:45,0.00,0.00,0.00,25.83,30.16,32.21,-0.09,-3.75,1018.57,2015.00,3641.95,3052.00,3515.90,0.00,0.00,0.00,0000 0000 0000 A000 020008
2018-09-23 03:20:46,0.00,0.00,0.00,25.85,30.17,32.22,-0.09,-3.78,1018.57,2015.00,3641.90,3052.00,3515.71,0.00,0.00,0.00,0000 0000 0000 A000 020008
2018-09-23 03:25:47,0.00,0.00,0.00,25.85,30.17,32.22,-0.09,-3.82,1018.58,2014.99,3641.80,3051.99,3515.40,0.00,0.00,0.00,0000 0000 0000 A000 020008
2018-09-23 03:30:48,0.00,0.00,0.00,25.85,30.19,32.20,-0.10,-3.82,1018.58,2014.99,3641.83,3051.98,3515.48,0.00,0.00,0.00,0000 0000 0000 A000 020008
2018-09-23 03:35:49,0.00,0.00,0.00,25.86,30.20,32.21,-0.10,-3.81,1018.60,2014.99,3641.29,3051.96,3515.08,0.00,0.00,0.00,0000 0000 0000 A000 020008
2018-09-23 03:40:51,0.00,0.00,0.00,25.87,30.20,32.21,-0.09,-3.83,1018.68,2014.97,3641.17,3051.95,3515.03,0.00,0.00,0.00,0000 0000 0000 A000 020008
2018-09-23 03:45:51,0.00,0.00,0.00,25.87,30.22,32.24,-0.09,-3.84,1018.92,2014.94,3641.04,3051.81,3515.00,0.00,0.00,0.00,0000 0000 0000 A000 020008
2018-09-23 03:50:53,0.00,0.00,0.00,25.87,30.22,32.25,-0.10,-3.81,1019.02,2014.90,3641.02,3051.63,3515.00,0.00,0.00,0.00,0000 0000 0000 A000 020008
2018-09-23 03:55:54,0.00,0.00,0.00,25.90,30.22,32.23,-0.10,-3.86,1018.95,2014.84,3641.00,3051.27,3515.00,0.00,0.00,0.00,0000 0000 0000 A000 020008
2018-09-23 04:00:55,0.00,0.00,0.00,25.90,30.24,32.23,-0.10,-3.81,1018.81,2014.82,3641.00,3051.20,3515.00,0.00,0.00,0.00,0000 0000 0000 A000 020008
2018-09-23 04:05:56,0.00,0.00,0.00,25.91,30.25,32.30,-0.10,-3.83,1018.70,2014.67,3641.00,3051.07,3514.99,0.00,0.00,0.00,0000 0000 0000 A000 020008
2018-09-23 04:10:57,0.00,0.00,0.00,25.92,30.25,32.25,-0.10,-3.78,1018.61,2014.39,3641.00,3051.04,3514.98,0.00,0.00,0.00,0000 0000 0000 A000 020008
2018-09-23 04:15:59,0.00,0.00,0.00,25.92,30.27,32.31,-0.10,-3.82,1018.59,2014.31,3641.00,3051.01,3514.95,0.00,0.00,0.00,0000 0000 0000 A000 020008
2018-09-23 04:21:00,0.00,0.00,0.00,25.93,30.27,32.31,-0.10,-3.86,1018.58,2014.20,3640.98,3051.00,3514.92,0.00,0.00,0.00,0000 0000 0000 A000 020008
2018-09-23 04:26:01,0.00,0.00,0.00,25.95,30.28,32.31,-0.10,-3.82,1018.58,2014.13,3640.97,3051.00,3514.80,0.00,0.00,0.00,0000 0000 0000 A000 020008
2018-09-23 04:31:02,0.00,0.00,0.00,25.97,30.30,32.30,-0.10,-3.83,1018.59,2014.07,3640.98,3051.00,3514.69,0.00,0.00,0.00,0000 0000 0000 A000 020008
2018-09-23 04:36:03,0.00,0.00,0.00,26.00,30.30,32.36,-0.10,-3.78,1018.59,2014.04,3640.95,3051.00,3514.47,0.00,0.00,0.00,0000 0000 0000 A000 020008
2018-09-23 04:41:04,0.00,0.00,0.00,26.02,30.31,32.37,-0.10,-3.89,1018.66,2014.02,3640.85,3051.00,3514.17,0.00,0.00,0.00,0000 0000 0000 A000 020008
2018-09-23 04:46:05,0.00,0.00,0.00,26.02,30.32,32.37,-0.09,-3.88,1018.82,2014.00,3640.50,3051.00,3514.04,0.00,0.00,0.00,0000 0000 0000 A000 020008
2018-09-23 04:51:07,0.00,0.00,0.00,26.03,30.33,32.35,-0.10,-3.83,1018.96,2014.00,3640.26,3050.96,3514.01,0.00,0.00,0.00,0000 0000 0000 A000 020008
2018-09-23 04:56:08,0.00,0.00,0.00,26.04,30.35,32.36,-0.10,-3.95,1018.97,2014.00,3640.09,3050.94,3514.00,0.00,0.00,0.00,0000 0000 0000 A000 020008
2018-09-23 05:01:09,0.00,0.00,0.00,26.05,30.35,32.38,-0.10,-3.96,1018.99,2014.00,3640.02,3050.77,3514.00,0.00,0.00,0.00,0000 0000 0000 A000 020008
2018-09-23 05:06:10,0.00,0.00,0.00,26.06,30.36,32.38,-0.10,-3.87,1019.03,2014.00,3640.00,3050.57,3514.00,0.00,0.00,0.00,0000 0000 0000 A000 020008
2018-09-23 05:11:12,0.00,0.00,0.00,26.07,30.37,32.42,-0.10,-3.91,1019.06,2014.00,3640.00,3050.31,3514.00,0.00,0.00,0.00,0000 0000 0000 A000 020008
2018-09-23 05:16:13,0.00,0.00,0.00,26.09,30.37,32.43,-0.10,-3.88,1019.06,2014.00,3640.00,3050.12,3513.97,0.00,0.00,0.00,0000 0000 0000 A000 020008
2018-09-23 05:21:14,0.00,0.00,0.00,26.10,30.39,32.44,-0.10,-3.95,1019.02,2013.99,3640.00,3050.05,3513.93,0.00,0.00,0.00,0000 0000 0000 A000 020008
2018-09-23 05:26:15,0.00,0.00,0.00,26.11,30.40,32.44,-0.10,-3.96,1019.03,2013.99,3640.00,3050.03,3513.89,0.00,0.00,0.00,0000 0000 0000 A000 020008
2018-09-23 05:31:17,0.00,0.00,0.00,26.12,30.40,32.48,-0.10,-3.95,1019.00,2013.99,3639.98,3050.01,3513.49,0.00,0.00,0.00,0000 0000 0000 A000 020008
2018-09-23 05:36:18,0.00,0.00,0.00,26.16,30.42,32.50,-0.10,-3.92,1018.83,2013.98,3639.92,3050.00,3513.19,0.00,0.00,0.00,0000 0000 0000 A000 020008
2018-09-23 05:41:19,0.00,0.00,0.00,26.17,30.42,32.46,-0.10,-3.99,1018.74,2013.92,3639.75,3050.00,3513.06,0.00,0.00,0.00,0000 0000 0000 A000 020008
2018-09-23 05:46:21,0.00,0.00,0.00,26.19,30.44,32.47,-0.10,-4.00,1018.63,2013.89,3639.65,3050.00,3513.04,0.00,0.00,0.00,0000 0000 0000 A000 020008
2018-09-23 05:51:22,0.00,0.00,0.00,26.20,30.45,32.51,-0.10,-4.00,1018.62,2013.90,3639.47,3050.00,3513.01,0.00,0.00,0.00,0000 0000 0000 A000 020008
2018-09-23 05:56:23,0.00,0.00,0.00,26.20,30.45,32.54,-0.10,-3.94,1018.62,2013.89,3639.34,3049.99,3513.00,0.00,0.00,0.00,0000 0000 0000 A000 020008
2018-09-23 06:01:24,0.00,0.00,0.00,26.20,30.47,32.53,-0.10,-3.92,1018.59,2013.65,3639.09,3049.98,3513.00,0.00,0.00,0.00,0000 0000 0000 A000 020008
2018-09-23 06:06:25,0.00,0.00,0.00,26.21,30.47,32.54,-0.10,-3.87,1018.59,2013.48,3639.04,3049.93,3513.00,0.00,0.00,0.00,0000 0000 0000 A000 020008
2018-09-23 06:11:27,0.00,0.00,0.00,26.22,30.49,32.52,-0.10,-3.88,1018.58,2013.20,3639.02,3049.79,3512.98,0.00,0.00,0.00,0000 0000 0000 A000 020008
2018-09-23 06:16:28,0.00,0.00,0.00,26.22,30.50,32.53,-0.10,-3.96,1018.59,2013.23,3639.00,3049.68,3512.98,0.00,0.00,0.00,0000 0000 0000 A000 020008
2018-09-23 06:21:29,0.00,0.00,0.00,26.23,30.51,32.51,-0.10,-3.92,1018.60,2013.09,3639.00,3049.46,3512.97,0.00,0.00,0.00,0000 0000 0000 A000 020008
2018-09-23 06:26:30,0.00,0.00,0.00,26.25,30.52,32.56,-0.10,-3.92,1018.60,2013.03,3639.00,3049.16,3512.71,0.00,0.00,0.00,0000 0000 0000 A000 020008
2018-09-23 06:31:31,0.00,0.00,0.00,26.25,30.53,32.60,-0.10,-3.92,1018.60,2013.01,3638.97,3049.02,3512.35,0.00,0.00,0.00,0000 0000 0000 A000 020008
2018-09-23 06:36:32,0.00,0.00,0.00,26.25,30.55,32.61,-0.10,-3.88,1018.61,2013.01,3638.97,3049.01,3512.12,0.00,0.00,0.00,0000 0000 0000 A000 020008
2018-09-23 06:41:34,0.00,0.00,0.00,26.27,30.55,32.64,-0.10,-3.95,1018.70,2013.00,3638.87,3049.00,3512.02,0.00,0.00,0.00,0000 0000 0000 A000 020008
2018-09-23 06:46:35,0.00,0.00,0.00,26.28,30.57,32.63,-0.10,-3.91,1018.68,2013.00,3638.63,3049.00,3512.01,0.00,0.00,0.00,0000 0000 0000 A000 020008
2018-09-23 06:51:36,0.00,0.00,0.00,26.29,30.57,32.66,-0.10,-3.95,1018.64,2013.00,3638.30,3049.00,3512.00,0.00,0.00,0.00,0000 0000 0000 A000 020008
2018-09-23 06:56:38,0.00,0.00,0.00,26.30,30.60,32.68,-0.10,-3.89,1018.62,2013.00,3638.14,3049.00,3512.00,0.00,0.00,0.00,0000 0000 0000 A000 020008
2018-09-23 07:01:39,0.00,0.00,0.00,26.30,30.60,32.68,-0.10,-3.93,1018.59,2012.99,3638.04,3048.98,3512.00,0.00,0.00,0.00,0000 0000 0000 A000 020008
2018-09-23 07:06:40,0.00,0.00,0.00,26.32,30.62,32.72,-0.10,-3.95,1018.71,2012.99,3638.02,3048.97,3511.99,0.00,0.00,0.00,0000 0000 0000 A000 020008
2018-09-23 07:11:42,0.00,0.00,0.00,26.32,30.62,32.67,-0.10,-3.83,1018.88,2012.98,3638.01,3048.95,3511.98,0.00,0.00,0.00,0000 0000 0000 A000 020008
2018-09-23 07:16:43,0.00,0.00,0.00,26.32,30.64,32.72,-0.10,-3.89,1018.96,2012.98,3638.00,3048.72,3511.90,0.00,0.00,0.00,0000 0000 0000 A000 020008
2018-09-23 07:21:44,0.00,0.00,0.00,26.32,30.65,32.71,-0.10,-3.86,1018.72,2012.98,3638.00,3048.40,3511.72,0.00,0.00,0.00,0000 0000 0000 A000 020008
2018-09-23 07:26:45,0.00,0.00,0.00,26.33,30.65,32.71,-0.10,-3.93,1018.84,2012.96,3638.00,3048.40,3511.66,0.00,0.00,0.00,0000 0000 0000 A000 020008
2018-09-23 07:31:46,0.00,0.00,0.00,26.34,30.67,32.71,-0.10,-3.93,1018.99,2012.96,3637.99,3048.32,3511.56,0.00,0.00,0.00,0000 0000 0000 A000 020008
2018-09-23 07:36:48,0.00,0.00,0.00,26.33,30.67,32.69,-0.10,-3.91,1019.01,2012.88,3637.99,3048.06,3511.19,0.00,0.00,0.00,0000 0000 0000 A000 020008
2018-09-23 07:41:49,0.00,0.00,0.00,26.33,30.68,32.70,-0.10,-3.98,1019.04,2012.86,3637.98,3048.05,3511.12,0.00,0.00,0.00,0000 0000 0000 A000 020008
2018-09-23 07:46:50,0.00,0.00,0.00,26.32,30.70,32.71,-0.10,-3.92,1019.02,2012.71,3637.95,3048.02,3511.02,0.00,0.00,0.00,0000 0000 0000 A000 020008
2018-09-23 07:51:51,0.00,0.00,0.00,26.32,30.70,32.74,-0.10,-3.94,1019.00,2012.57,3637.75,3048.01,3511.01,0.00,0.00,0.00,0000 0000 0000 A000 020008
2018-09-23 07:56:52,0.00,0.00,0.00,26.33,30.71,32.70,-0.10,-3.96,1019.03,2012.29,3637.44,3048.00,3511.00,0.00,0.00,0.00,0000 0000 0000 A000 020008
2018-09-23 08:01:53,0.00,0.00,0.00,26.33,30.72,32.73,-0.10,-3.93,1019.06,2012.12,3637.16,3048.00,3510.99,0.00,0.00,0.00,0000 0000 0000 A000 020008
2018-09-23 08:06:54,0.00,0.00,0.00,26.33,30.72,32.72,-0.10,-3.95,1019.06,2012.08,3637.11,3048.00,3510.98,0.00,0.00,0.00,0000 0000 0000 A000 020008
2018-09-23 08:11:56,0.00,0.00,0.00,26.34,30.73,32.71,-0.10,-3.94,1019.07,2012.06,3637.09,3047.99,3510.99,0.00,0.00,0.00,0000 0000 0000 A000 020008
2018-09-23 08:16:57,0.00,0.00,0.00,26.34,30.74,32.74,-0.10,-3.97,1019.07,2012.03,3637.02,3047.98,3510.98,0.00,0.00,0.00,0000 0000 0000 A000 020008
2018-09-23 08:21:59,0.00,0.00,0.00,26.33,30.75,32.73,-0.10,-3.96,1019.07,2012.01,3637.01,3047.98,3510.90,0.00,0.00,0.00,0000 0000 0000 A000 020008
2018-09-23 08:27:00,0.00,0.00,0.00,26.34,30.75,32.74,-0.10,-4.01,1019.08,2012.02,3637.00,3047.97,3510.83,0.00,0.00,0.00,0000 0000 0000 A000 020008
2018-09-23 08:32:01,0.00,0.00,0.00,26.35,30.75,32.77,-0.10,-3.97,1019.08,2012.00,3637.00,3047.95,3510.83,0.00,0.00,0.00,0000 0000 0000 A000 020008
2018-09-23 08:37:02,0.00,0.00,0.00,26.35,30.77,32.76,-0.10,-3.97,1019.10,2012.01,3637.00,3047.94,3510.43,0.00,0.00,0.00,0000 0000 0000 A000 020008
2018-09-23 08:42:03,0.00,0.00,0.00,26.35,30.77,32.75,-0.10,-4.00,1019.09,2012.01,3637.00,3047.93,3510.32,0.00,0.00,0.00,0000 0000 0000 A000 020008
2018-09-23 08:47:04,0.00,0.00,0.00,26.35,30.77,32.71,-0.10,-4.02,1019.14,2012.00,3637.00,3047.79,3510.13,0.00,0.00,0.00,0000 0000 0000 A000 020008
2018-09-23 08:52:05,0.00,0.00,0.00,26.35,30.77,32.70,-0.10,-4.01,1019.45,2012.00,3637.00,3047.81,3510.20,0.00,0.00,0.00,0000 0000 0000 A000 020008
2018-09-23 08:57:06,0.00,0.00,0.00,26.35,30.78,32.74,-0.10,-4.05,1019.49,2012.00,3637.00,3047.59,3510.05,0.00,0.00,0.00,0000 0000 0000 A000 020008
2018-09-23 09:02:07,0.00,0.00,0.00,26.35,30.79,32.76,-0.10,-4.14,1019.55,2012.00,3636.99,3047.53,3510.04,0.00,0.00,0.00,0000 0000 0000 A000 020008
2018-09-23 09:07:08,0.00,0.00,0.00,26.35,30.80,32.77,-0.10,-4.13,1019.55,2012.00,3636.98,3047.43,3510.02,0.00,0.00,0.00,0000 0000 0000 A000 020008
2018-09-23 09:12:10,0.00,0.00,0.00,26.35,30.80,32.79,-0.10,-4.10,1019.55,2012.00,3636.99,3047.48,3510.02,0.00,0.00,0.00,0000 0000 0000 A000 020008
2018-09-23 09:17:11,0.00,0.00,0.00,26.35,30.80,32.75,-0.10,-4.08,1019.55,2012.00,3636.98,3047.34,3510.03,0.00,0.00,0.00,0000 0000 0000 A000 020008
2018-09-23 09:22:11,0.00,0.00,0.00,26.35,30.80,32.72,-0.10,-4.06,1019.55,2012.00,3636.93,3047.10,3510.01,0.00,0.00,0.00,0000 0000 0000 A000 020008
2018-09-23 09:27:13,0.00,0.00,0.00,26.36,30.80,32.72,-0.10,-4.08,1019.56,2011.99,3636.95,3047.09,3510.01,0.00,0.00,0.00,0000 0000 0000 A000 020008
2018-09-23 09:32:14,0.00,0.00,0.00,26.37,30.81,32.76,-0.10,-4.11,1019.57,2011.99,3636.90,3047.06,3510.00,0.00,0.00,0.00,0000 0000 0000 A000 020008
2018-09-23 09:37:15,0.00,0.00,0.00,26.37,30.82,32.78,-0.10,-4.06,1019.59,2011.99,3636.90,3047.06,3510.00,0.00,0.00,0.00,0000 0000 0000 A000 020008
2018-09-23 09:42:16,0.00,0.00,0.00,26.37,30.82,32.75,-0.10,-4.01,1019.72,2011.99,3636.86,3047.04,3510.00,0.00,0.00,0.00,0000 0000 0000 A000 020008
2018-09-23 09:47:18,0.00,0.00,0.00,26.37,30.82,32.74,-0.10,-4.01,1019.93,2011.99,3636.51,3047.01,3510.00,0.00,0.00,0.00,0000 0000 0000 A000 020008
2018-09-23 09:52:19,0.00,0.00,0.00,26.37,30.82,32.74,-0.10,-3.99,1020.02,2011.99,3636.36,3047.00,3509.99,0.00,0.00,0.00,0000 0000 0000 A000 020008
2018-09-23 09:57:20,0.00,0.00,0.00,26.36,30.82,32.78,-0.10,-4.06,1020.03,2011.99,3636.20,3047.01,3509.98,0.00,0.00,0.00,0000 0000 0000 A000 020008
2018-09-23 10:02:21,0.00,0.00,0.00,26.35,30.82,32.76,-0.10,-4.01,1020.03,2011.98,3636.16,3047.00,3509.99,0.00,0.00,0.00,0000 0000 0000 A000 020008
2018-09-23 10:07:22,0.00,0.00,0.00,26.35,30.82,32.77,-0.10,-4.02,1020.03,2011.96,3636.12,3047.00,3509.96,0.00,0.00,0.00,0000 0000 0000 A000 020008
2018-09-23 10:12:24,0.00,0.00,0.00,26.35,30.83,32.76,-0.10,-4.04,1020.03,2011.98,3636.14,3047.00,3509.98,0.00,0.00,0.00,0000 0000 0000 A000 020008
2018-09-23 10:17:25,0.00,0.00,0.00,26.35,30.84,32.77,-0.10,-4.01,1020.03,2011.97,3636.07,3047.00,3509.97,0.00,0.00,0.00,0000 0000 0000 A000 020008
2018-09-23 10:22:26,0.00,0.00,0.00,26.35,30.84,32.75,-0.10,-4.05,1020.03,2011.98,3636.06,3047.00,3509.98,0.00,0.00,0.00,0000 0000 0000 A000 020008
2018-09-23 10:27:27,0.00,0.00,0.00,26.35,30.85,32.74,-0.10,-4.03,1020.03,2011.97,3636.02,3047.00,3509.92,0.00,0.00,0.00,0000 0000 0000 A000 020008
2018-09-23 10:32:29,0.00,0.00,0.00,26.35,30.85,32.74,-0.10,-4.05,1020.03,2011.95,3636.02,3046.98,3509.84,0.00,0.00,0.00,0000 0000 0000 A000 020008
2018-09-23 10:37:30,0.00,0.00,0.00,26.35,30.85,32.71,-0.10,-4.14,1020.03,2011.97,3636.05,3046.99,3509.94,0.00,0.00,0.00,0000 0000 0000 A000 020008
2018-09-23 10:42:31,0.00,0.00,0.00,26.35,30.85,32.76,-0.10,-4.16,1020.03,2011.97,3636.01,3046.99,3509.92,0.00,0.00,0.00,0000 0000 0000 A000 020008
2018-09-23 10:47:32,0.00,0.00,0.00,26.35,30.85,32.74,-0.10,-4.20,1020.03,2011.94,3636.01,3046.99,3509.84,0.00,0.00,0.00,0000 0000 0000 A000 020008
2018-09-23 10:52:33,0.00,0.00,0.00,26.35,30.85,32.73,-0.10,-4.09,1020.03,2011.92,3636.00,3046.98,3509.68,0.00,0.00,0.00,0000 0000 0000 A000 020008
2018-09-23 10:57:34,0.00,0.00,0.00,26.35,30.85,32.75,-0.10,-4.06,1020.03,2011.93,3636.01,3046.99,3509.70,0.00,0.00,0.00,0000 0000 0000 A000 020008
2018-09-23 11:02:35,0.00,0.00,0.00,26.35,30.85,32.75,-0.10,-4.06,1020.03,2011.89,3636.00,3046.99,3509.72,0.00,0.00,0.00,0000 0000 0000 A000 020008
2018-09-23 11:07:37,0.00,0.00,0.00,26.35,30.85,32.74,-0.10,-4.07,1020.03,2011.90,3636.01,3046.99,3509.78,0.00,0.00,0.00,0000 0000 0000 A000 020008
2018-09-23 11:12:38,0.00,0.00,0.00,26.35,30.85,32.76,-0.10,-4.08,1020.03,2011.94,3636.01,3046.99,3509.87,0.00,0.00,0.00,0000 0000 0000 A000 020008
2018-09-23 11:17:39,0.00,0.00,0.00,26.35,30.85,32.76,-0.10,-4.13,1020.03,2011.94,3636.01,3046.99,3509.86,0.00,0.00,0.00,0000 0000 0000 A000 020008
2018-09-23 11:22:41,0.00,0.00,0.00,26.35,30.85,32.74,-0.10,-4.08,1020.04,2011.95,3636.00,3046.99,3509.72,0.00,0.00,0.00,0000 0000 0000 A000 020008
2018-09-23 11:27:42,0.00,0.00,0.00,26.34,30.85,32.70,-0.10,-4.12,1020.04,2011.93,3636.01,3046.99,3509.68,0.00,0.00,0.00,0000 0000 0000 A000 020008
2018-09-23 11:32:43,0.00,0.00,0.00,26.32,30.85,32.70,-0.10,-4.06,1020.04,2011.94,3636.01,3046.99,3509.77,0.00,0.00,0.00,0000 0000 0000 A000 020008
2018-09-23 11:37:44,0.00,0.00,0.00,26.32,30.85,32.74,-0.10,-4.09,1020.04,2011.93,3636.01,3046.99,3509.73,0.00,0.00,0.00,0000 0000 0000 A000 020008
2018-09-23 11:42:46,0.00,0.00,0.00,26.32,30.85,32.71,-0.10,-4.15,1020.04,2011.93,3636.01,3046.99,3509.69,0.00,0.00,0.00,0000 0000 0000 A000 020008
2018-09-23 11:47:47,0.00,0.00,0.00,26.32,30.85,32.70,-0.10,-4.07,1020.04,2011.95,3636.04,3046.99,3509.88,0.00,0.00,0.00,0000 0000 0000 A000 020008
2018-09-23 11:52:48,0.00,0.00,0.00,26.32,30.85,32.72,-0.10,-4.07,1020.04,2011.94,3636.03,3046.99,3509.91,0.00,0.00,0.00,0000 0000 0000 A000 020008
2018-09-23 11:57:49,0.00,0.00,0.00,26.32,30.85,32.72,-0.10,-4.04,1020.04,2011.95,3636.05,3046.99,3509.95,0.00,0.00,0.00,0000 0000 0000 A000 020008
2018-09-23 12:02:51,0.00,0.00,0.00,26.32,30.85,32.71,-0.10,-4.03,1019.99,2011.96,3636.02,3046.99,3509.90,0.00,0.00,0.00,0000 0000 0000 A000 020008
2018-09-23 12:07:52,0.00,0.00,0.00,26.30,30.85,32.71,-0.10,-4.02,1019.79,2011.94,3636.02,3046.99,3509.89,0.00,0.00,0.00,0000 0000 0000 A000 020008
2018-09-23 12:12:53,0.00,0.00,0.00,26.30,30.85,32.71,-0.10,-4.04,1019.73,2011.95,3636.05,3046.99,3509.90,0.00,0.00,0.00,0000 0000 0000 A000 020008
2018-09-23 12:17:54,0.00,0.00,0.00,26.30,30.85,32.69,-0.10,-4.05,1019.77,2011.97,3636.07,3046.99,3509.95,0.00,0.00,0.00,0000 0000 0000 A000 020008
2018-09-23 12:22:55,0.00,0.00,0.00,26.29,30.85,32.71,-0.10,-4.09,1019.82,2011.96,3636.09,3046.99,3509.97,0.00,0.00,0.00,0000 0000 0000 A000 020008
2018-09-23 12:27:56,0.00,0.00,0.00,26.29,30.85,32.67,-0.10,-4.23,1020.00,2011.94,3636.03,3047.00,3509.87,0.00,0.00,0.00,0000 0000 0000 A000 020008
2018-09-23 12:32:58,0.00,0.00,0.00,26.27,30.85,32.65,-0.10,-4.24,1019.95,2011.91,3636.01,3047.00,3509.80,0.00,0.00,0.00,0000 0000 0000 A000 020008
2018-09-23 12:37:59,0.00,0.00,0.00,26.27,30.85,32.66,-0.10,-4.23,1019.80,2011.92,3636.01,3047.00,3509.86,0.00,0.00,0.00,0000 0000 0000 A000 020008
2018-09-23 12:43:00,0.00,0.00,0.00,26.27,30.84,32.67,-0.10,-4.11,1019.61,2011.91,3636.01,3047.00,3509.74,0.00,0.00,0.00,0000 0000 0000 A000 020008
2018-09-23 12:48:01,0.00,0.00,0.00,26.27,30.83,32.66,-0.10,-4.02,1019.57,2011.89,3636.01,3047.00,3509.67,0.00,0.00,0.00,0000 0000 0000 A000 020008
2018-09-23 12:53:02,0.00,0.00,0.00,26.27,30.83,32.67,-0.10,-4.03,1019.56,2011.93,3636.01,3047.00,3509.90,0.00,0.00,0.00,0000 0000 0000 A000 020008
2018-09-23 12:58:04,0.00,0.00,0.00,26.27,30.82,32.64,-0.10,-4.04,1019.55,2011.97,3636.06,3047.00,3509.90,0.00,0.00,0.00,0000 0000 0000 A000 020008
2018-09-23 13:03:05,0.00,0.00,0.00,26.27,30.82,32.66,-0.10,-4.06,1019.55,2011.96,3636.04,3047.00,3509.91,0.00,0.00,0.00,0000 0000 0000 A000 020008
2018-09-23 13:08:06,0.00,0.00,0.00,26.27,30.82,32.65,-0.10,-4.06,1019.54,2011.97,3636.03,3047.00,3509.96,0.00,0.00,0.00,0000 0000 0000 A000 020008
2018-09-23 13:13:07,0.00,0.00,0.00,26.25,30.82,32.66,-0.10,-4.22,1019.55,2011.97,3636.04,3047.00,3509.96,0.00,0.00,0.00,0000 0000 0000 A000 020008
2018-09-23 13:18:08,0.00,0.00,0.00,26.25,30.82,32.63,-0.10,-4.23,1019.55,2011.97,3636.05,3047.00,3509.96,0.00,0.00,0.00,0000 0000 0000 A000 020008
2018-09-23 13:23:10,0.00,0.00,0.00,26.25,30.82,32.63,-0.10,-4.24,1019.55,2011.97,3636.07,3047.00,3509.98,0.00,0.00,0.00,0000 0000 0000 A000 020008